Location: Allison's Woods
(35.8809°N, 80.8140°W)
Time: 13:03:50
(UTC-04:00)

Iridium 39 - Visible Passes

Search period start: 30 August 2016 00:00
Search period end: 09 September 2016 00:00
Orbit: 725 x 751 km, 86.4° (Epoch: 30 August)

Date Brightness Start Highest point End Pass type
(mag) Time Alt. Az. Time Alt. Az. Time Alt. Az.
31 Aug 8.9 00:25:30 10° NNW 00:25:38 11° NNW 00:25:38 11° NNW visible
31 Aug 8.7 23:40:20 10° N 23:40:38 12° N 23:40:38 12° N visible
02 Sep 8.8 23:49:58 10° N 23:50:17 12° N 23:50:17 12° N visible
03 Sep 8.6 23:05:10 10° NNE 23:05:18 11° NNE 23:05:18 11° NNE visible
04 Sep 8.9 23:59:51 10° NNW 23:59:57 11° NNW 23:59:57 11° NNW visible
05 Sep 8.6 23:14:38 10° N 23:14:58 12° N 23:14:58 12° N visible
07 Sep 8.7 23:24:18 10° N 23:24:41 12° N 23:24:41 12° N visible
08 Sep 8.5 22:39:26 10° NNE 22:39:44 11° NNE 22:39:44 11° NNE visible
